CW3996 Weather Reports


Display with metric or nautical units.
time (UTC)temp
F
wind
direction
speed
MPH
gust
MPH
rain 1hr
in
rain 24hr
in
rain mn
in
humidity
%
barometer
mb
20260505223723 61 129 2.0 9.0 0.00 0.00 0.00 23 1009.1
20260505223217 61 129 3.0 9.0 0.00 0.00 0.00 22 1009.1
20260505222731 60 129 1.0 9.0 0.00 0.00 0.00 23 1009.2
20260505222226 60 129 2.0 9.0 0.00 0.00 0.00 23 1009.3
20260505221719 60 128 4.0 10.0 0.00 0.00 0.00 22 1009.4
20260505221254 60 128 5.0 11.0 0.00 0.00 0.00 23 1009.4
20260505220726 60 128 6.0 11.0 0.00 0.00 0.00 25 1009.5
20260505220226 60 128 6.0 11.0 0.00 0.00 0.00 23 1009.5
20260505215719 61 126 6.0 14.0 0.00 0.00 0.00 24 1009.7
20260505215213 60 126 8.0 15.0 0.00 0.00 0.00 24 1009.7
20260505214727 60 115 5.0 15.0 0.00 0.00 0.00 23 1009.8
20260505214222 61 111 6.0 13.0 0.00 0.00 0.00 23 1009.8
20260505213715 61 106 6.0 11.0 0.00 0.00 0.00 22 1009.9
20260505213229 60 104 4.0 14.0 0.00 0.00 0.00 25 1009.9
20260505212728 60 104 8.0 14.0 0.00 0.00 0.00 23 1010.0
20260505212222 60 101 9.0 14.0 0.00 0.00 0.00 23 1010.1
20260505211736 60 10 5.0 11.0 0.00 0.00 0.00 22 1010.1
20260505211229 60 5 0.0 5.0 0.00 0.00 0.00 24 1010.2
20260505210723 60 5 3.0 5.0 0.00 0.00 0.00 22 1010.2
20260505210219 59 5 2.0 5.0 0.00 0.00 0.00 23 1010.2
20260505205752 59 5 1.0 6.0 0.00 0.00 0.00 24 1010.3
20260505205226 58 5 2.0 11.0 0.00 0.00 0.00 24 1010.4
20260505204719 58 5 3.0 13.0 0.00 0.00 0.00 24 1010.4
20260505204238 58 5 10.0 13.0 0.00 0.00 0.00 24 1010.3
20260505203730 58 360 5.0 21.0 0.00 0.00 0.00 25 1010.3
20260505203224 58 360 5.0 21.0 0.00 0.00 0.00 25 1010.3
20260505202717 59 344 12.0 18.0 0.00 0.00 0.00 23 1010.2
20260505202252 59 321 6.0 14.0 0.00 0.00 0.00 21 1010.2
20260505201724 60 311 5.0 14.0 0.00 0.00 0.00 21 1010.2
20260505201218 61 272 7.0 11.0 0.00 0.00 0.00 18 1010.1
20260505200732 61 270 7.0 16.0 0.00 0.00 0.00 17 1010.0
20260505200247 61 267 8.0 18.0 0.00 0.00 0.00 17 1009.9
20260505195719 61 290 11.0 18.0 0.00 0.00 0.00 18 1009.9
20260505195217 62 294 7.0 15.0 0.00 0.00 0.00 18 1009.9
20260505194731 62 277 10.0 14.0 0.00 0.00 0.00 17 1009.8
20260505194225 62 265 6.0 11.0 0.00 0.00 0.00 17 1009.8
20260505193718 61 265 8.0 11.0 0.00 0.00 0.00 18 1009.7
20260505193233 61 260 5.0 11.0 0.00 0.00 0.00 18 1009.7
20260505192727 61 260 5.0 11.0 0.00 0.00 0.00 17 1009.7
20260505192221 61 261 6.0 9.0 0.00 0.00 0.00 19 1009.8
20260505191715 61 260 4.0 12.0 0.00 0.00 0.00 18 1009.7
20260505191213 61 260 7.0 16.0 0.00 0.00 0.00 18 1009.8
20260505190727 62 252 11.0 16.0 0.00 0.00 0.00 18 1009.8
20260505190222 63 238 8.0 16.0 0.00 0.00 0.00 17 1009.8
20260505185736 63 229 7.0 16.0 0.00 0.00 0.00 16 1009.7
20260505185229 65 252 8.0 14.0 0.00 0.00 0.00 16 1009.8
20260505184723 64 250 7.0 12.0 0.00 0.00 0.00 17 1009.8
20260505184218 63 223 7.0 12.0 0.00 0.00 0.00 16 1009.8
20260505183732 63 227 4.0 15.0 0.00 0.00 0.00 16 1009.8
20260505183226 64 223 9.0 15.0 0.00 0.00 0.00 16 1009.9
20260505182720 64 218 8.0 12.0 0.00 0.00 0.00 16 1010.0
20260505182233 63 224 7.0 14.0 0.00 0.00 0.00 18 1009.9
20260505181727 64 209 10.0 18.0 0.00 0.00 0.00 17 1009.9
20260505181221 63 186 7.0 18.0 0.00 0.00 0.00 17 1009.9
20260505180734 64 221 10.0 17.0 0.00 0.00 0.00 17 1010.0
20260505180228 64 223 10.0 16.0 0.00 0.00 0.00 16 1010.0
20260505175722 63 213 10.0 16.0 0.00 0.00 0.00 18 1010.1
20260505175220 61 221 2.0 16.0 0.00 0.00 0.00 18 1010.1
20260505174714 63 217 9.0 16.0 0.00 0.00 0.00 17 1010.2
20260505174228 64 224 9.0 14.0 0.00 0.00 0.00 17 1010.2
20260505173722 64 216 11.0 16.0 0.00 0.00 0.00 17 1010.2
20260505173216 63 220 9.0 16.0 0.00 0.00 0.00 20 1010.2
20260505172730 61 217 8.0 13.0 0.00 0.00 0.00 21 1010.2
20260505172225 60 202 8.0 18.0 0.00 0.00 0.00 21 1010.2
20260505171717 60 185 8.0 18.0 0.00 0.00 0.00 20 1010.2
20260505171216 61 200 9.0 14.0 0.00 0.00 0.00 20 1010.1
20260505170730 62 190 10.0 16.0 0.00 0.00 0.00 20 1010.2
20260505170225 62 206 8.0 16.0 0.00 0.00 0.00 21 1010.1
20260505165719 61 163 10.0 15.0 0.00 0.00 0.00 20 1010.1
20260505165233 61 187 7.0 14.0 0.00 0.00 0.00 21 1010.0
20260505164726 61 173 9.0 20.0 0.00 0.00 0.00 20 1010.0
20260505164221 61 207 10.0 20.0 0.00 0.00 0.00 21 1010.1
20260505163715 60 230 8.0 18.0 0.00 0.00 0.00 21 1010.0
20260505163213 60 176 10.0 18.0 0.00 0.00 0.00 21 1010.1
20260505162747 59 194 11.0 18.0 0.00 0.00 0.00 23 1010.2
20260505162220 59 205 10.0 18.0 0.00 0.00 0.00 24 1010.2
20260505161713 59 196 8.0 20.0 0.00 0.00 0.00 24 1010.2
20260505161227 59 211 12.0 18.0 0.00 0.00 0.00 23 1010.1
20260505160721 59 217 9.0 17.0 0.00 0.00 0.00 23 1010.2
20260505160217 59 192 11.0 17.0 0.00 0.00 0.00 22 1010.3
20260505153223 57 207 14.0 19.0 0.00 0.00 0.00 24 1010.1
20260505152716 56 209 9.0 16.0 0.00 0.00 0.00 25 1010.2
20260505152229 57 204 10.0 17.0 0.00 0.00 0.00 24 1010.2
20260505151723 56 138 10.0 22.0 0.00 0.00 0.00 25 1010.2
20260505151221 55 205 15.0 22.0 0.00 0.00 0.00 25 1010.2
20260505150716 56 207 14.0 20.0 0.00 0.00 0.00 25 1010.2
20260505150231 56 154 12.0 20.0 0.00 0.00 0.00 25 1010.2
20260505140219 53 198 13.0 19.0 0.00 0.00 0.00 26 1010.2
20260505130232 51 203 10.0 18.0 0.00 0.00 0.00 28 1009.9
20260505124753 50 196 9.0 10.0 0.00 0.00 0.00 28 1009.9
20260505124227 50 192 5.0 10.0 0.00 0.00 0.00 29 1009.8
20260505123720 50 191 5.0 15.0 0.00 0.00 0.00 28 1009.8
20260505123215 51 191 6.0 15.0 0.00 0.00 0.00 27 1009.8
20260505122729 51 178 6.0 13.0 0.00 0.00 0.00 26 1009.7
20260505122227 51 173 9.0 16.0 0.00 0.00 0.00 26 1009.6
20260505121722 51 190 6.0 16.0 0.00 0.00 0.00 26 1009.6
20260505121216 51 131 7.0 17.0 0.00 0.00 0.00 26 1009.5
20260505120730 51 188 8.0 14.0 0.00 0.00 0.00 25 1009.5
20260505120226 51 175 7.0 14.0 0.00 0.00 0.00 25 1009.5
20260505115718 52 162 9.0 16.0 0.00 0.00 0.00 24 1009.5
20260505115231 52 157 9.0 16.0 0.00 0.00 0.00 24 1009.4
20260505114724 52 138 9.0 17.0 0.00 0.00 0.00 24 1009.4
20260505114218 52 157 10.0 17.0 0.00 0.00 0.00 24 1009.4
20260505113716 52 144 10.0 21.0 0.00 0.00 0.00 24 1009.3
20260505113229 52 180 11.0 21.0 0.00 0.00 0.00 25 1009.2
20260505112724 52 194 12.0 18.0 0.00 0.00 0.00 24 1009.1
20260505112218 52 145 10.0 21.0 0.00 0.00 0.00 25 1009.0
20260505111731 52 194 11.0 22.0 0.00 0.00 0.00 24 1009.1
20260505111245 52 178 12.0 22.0 0.00 0.00 0.00 24 1009.3
20260505110718 52 161 10.0 20.0 0.00 0.00 0.00 24 1009.3
20260505110213 52 168 13.0 21.0 0.00 0.00 0.00 23 1009.3
20260505101720 53 180 12.0 21.0 0.00 0.00 0.00 25 1009.6
20260505101214 53 191 11.0 22.0 0.00 0.00 0.00 25 1009.6
20260505100732 53 185 11.0 22.0 0.00 0.00 0.00 25 1009.7
20260505100227 53 190 11.0 22.0 0.00 0.00 0.00 25 1009.8
20260505095741 53 172 10.0 22.0 0.00 0.00 0.00 25 1009.8
20260505095233 53 154 11.0 18.0 0.00 0.00 0.00 25 1009.8
20260505094726 53 194 10.0 18.0 0.00 0.00 0.00 25 1009.9
20260505094220 53 169 11.0 20.0 0.00 0.00 0.00 24 1009.8
20260505093715 54 196 9.0 24.0 0.00 0.00 0.00 24 1009.8
20260505093229 54 158 14.0 24.0 0.00 0.00 0.00 24 1009.8
20260505092726 54 142 12.0 19.0 0.00 0.00 0.00 24 1009.8
20260505092220 54 131 9.0 23.0 0.00 0.00 0.00 24 1009.8
20260505091714 54 181 13.0 23.0 0.00 0.00 0.00 24 1009.8
20260505091226 53 182 11.0 19.0 0.00 0.00 0.00 24 1009.8
20260505090720 52 195 8.0 18.0 0.00 0.00 0.00 26 1009.8
20260505090215 53 200 8.0 18.0 0.00 0.00 0.00 25 1009.8
20260505085728 53 180 8.0 15.0 0.00 0.00 0.00 25 1009.8
20260505085222 53 170 7.0 13.0 0.00 0.00 0.00 25 1009.9
20260505084720 53 173 8.0 13.0 0.00 0.00 0.00 25 1010.0
20260505084215 53 183 4.0 12.0 0.00 0.00 0.00 25 1010.0
20260505083728 53 182 5.0 12.0 0.00 0.00 0.00 25 1010.0
20260505083222 53 182 6.0 15.0 0.00 0.00 0.00 24 1010.0
20260505082715 53 184 8.0 15.0 0.00 0.00 0.00 24 1010.0
20260505082228 53 181 6.0 12.0 0.00 0.00 0.00 24 1010.1
20260505081722 54 184 6.0 12.0 0.00 0.00 0.00 24 1010.2
20260505081216 54 187 5.0 9.0 0.00 0.00 0.00 28 1010.3
20260505080713 54 244 3.0 11.0 0.00 0.00 0.00 33 1010.3
20260505080228 54 244 5.0 21.0 0.00 0.00 0.00 32 1010.2
20260505075720 55 235 10.0 29.0 0.00 0.00 0.00 31 1010.3
20260505075215 56 233 20.0 29.0 0.00 0.00 0.00 29 1010.4
20260505074749 56 199 8.0 16.0 0.00 0.00 0.00 21 1010.3
20260505074221 56 205 9.0 13.0 0.00 0.00 0.00 20 1010.2
20260505073715 56 204 5.0 10.0 0.00 0.00 0.00 22 1010.3
20260505073230 57 203 4.0 13.0 0.00 0.00 0.00 23 1010.2
20260505072744 56 203 7.0 13.0 0.00 0.00 0.00 23 1010.2
20260505072221 56 247 6.0 10.0 0.00 0.00 0.00 27 1010.2
20260505071714 56 263 2.0 9.0 0.00 0.00 0.00 26 1010.2
20260505071227 57 263 5.0 10.0 0.00 0.00 0.00 25 1010.2
20260505070721 57 275 4.0 26.0 0.00 0.00 0.00 24 1010.2
20260505070217 57 275 12.0 27.0 0.00 0.00 0.00 25 1010.3
20260505065729 57 233 16.0 27.0 0.00 0.00 0.00 26 1010.3
20260505065224 56 178 9.0 15.0 0.00 0.00 0.00 26 1010.3
20260505064718 57 166 8.0 16.0 0.00 0.00 0.00 27 1010.3
20260505064216 57 161 10.0 19.0 0.00 0.00 0.00 27 1010.2
20260505063730 57 188 10.0 19.0 0.00 0.00 0.00 28 1010.2
20260505063224 58 182 12.0 19.0 0.00 0.00 0.00 27 1010.1
20260505062738 58 180 8.0 14.0 0.00 0.00 0.00 26 1010.0
20260505062231 59 204 9.0 14.0 0.00 0.00 0.00 25 1009.9
20260505061746 59 208 10.0 19.0 0.00 0.00 0.00 23 1009.9
20260505061219 59 225 11.0 19.0 0.00 0.00 0.00 21 1009.7
20260505060713 58 211 13.0 18.0 0.00 0.00 0.00 25 1009.7
20260505060228 58 195 9.0 24.0 0.00 0.00 0.00 29 1009.8
20260505055726 58 167 15.0 24.0 0.00 0.00 0.00 29 1009.9
20260505055220 58 159 12.0 20.0 0.00 0.00 0.00 30 1009.8
20260505054734 57 168 10.0 15.0 0.00 0.00 0.00 33 1009.8
20260505054227 57 211 7.0 10.0 0.00 0.00 0.00 37 1009.7
20260505053719 57 212 7.0 12.0 0.00 0.00 0.00 39 1009.7
20260505053213 58 212 7.0 16.0 0.00 0.00 0.00 33 1009.7
20260505052747 58 208 10.0 16.0 0.00 0.00 0.00 31 1009.6
20260505052221 57 198 9.0 13.0 0.00 0.00 0.00 36 1009.7
20260505051715 55 188 5.0 12.0 0.00 0.00 0.00 49 1009.8
20260505051213 55 304 3.0 6.0 0.00 0.00 0.00 53 1009.9
20260505050747 55 304 2.0 6.0 0.00 0.00 0.00 52 1009.7
20260505050221 55 304 2.0 5.0 0.00 0.00 0.00 52 1009.7
20260505041730 56 304 1.0 5.0 0.00 0.00 0.00 45 1009.6
20260505041224 57 304 4.0 5.0 0.00 0.00 0.00 44 1009.5
20260505040718 57 304 0.0 2.0 0.00 0.00 0.00 42 1009.7
20260505040233 57 304 0.0 2.0 0.00 0.00 0.00 44 1009.7
20260505035746 57 304 0.0 5.0 0.00 0.00 0.00 44 1009.6
20260505035223 57 304 3.0 5.0 0.00 0.00 0.00 45 1009.6
20260505034717 57 304 0.0 5.0 0.00 0.00 0.00 42 1009.5
20260505034231 57 304 0.0 6.0 0.00 0.00 0.00 41 1009.6
20260505033725 58 304 5.0 6.0 0.00 0.00 0.00 41 1009.4
20260505033219 57 304 4.0 8.0 0.00 0.00 0.00 41 1009.3
20260505032713 58 304 3.0 9.0 0.00 0.00 0.00 41 1009.3
20260505032226 58 304 6.0 9.0 0.00 0.00 0.00 41 1009.2
20260505031719 58 304 2.0 8.0 0.00 0.00 0.00 41 1009.2
20260505031213 58 304 4.0 10.0 0.00 0.00 0.00 40 1009.0
20260505030730 58 304 4.0 10.0 0.00 0.00 0.00 41 1009.0
20260505030246 57 304 2.0 6.0 0.00 0.00 0.00 41 1009.0
20260505025718 57 304 0.0 3.0 0.00 0.00 0.00 42 1009.0
20260505025213 57 304 1.0 5.0 0.00 0.00 0.00 42 1008.9
20260505024727 57 304 2.0 9.0 0.00 0.00 0.00 42 1008.9
20260505024221 57 304 2.0 9.0 0.00 0.00 0.00 43 1008.8
20260505023715 57 295 6.0 9.0 0.00 0.00 0.00 43 1008.5
20260505023229 57 274 0.0 8.0 0.00 0.00 0.00 42 1008.5
20260505022727 57 274 3.0 11.0 0.00 0.00 0.00 42 1008.5
20260505022221 58 274 6.0 12.0 0.00 0.00 0.00 42 1008.4
20260505021715 58 259 7.0 15.0 0.00 0.00 0.00 40 1008.5
20260505021249 58 266 9.0 15.0 0.00 0.00 0.00 39 1008.4
20260505020722 59 286 8.0 12.0 0.00 0.00 0.00 37 1008.3
20260505020217 61 267 6.0 10.0 0.00 0.00 0.00 34 1008.2
20260505015731 62 207 3.0 10.0 0.00 0.00 0.00 28 1008.2
20260505015225 63 150 7.0 10.0 0.00 0.00 0.00 27 1008.0
20260505014723 63 149 6.0 15.0 0.00 0.00 0.00 26 1007.9
20260505014217 63 161 10.0 17.0 0.00 0.00 0.00 27 1007.9
20260505013731 63 125 11.0 17.0 0.00 0.00 0.00 27 1007.9
20260505013246 64 161 11.0 17.0 0.00 0.00 0.00 26 1007.9
20260505012718 64 175 11.0 16.0 0.00 0.00 0.00 24 1007.9
20260505012232 64 150 10.0 15.0 0.00 0.00 0.00 24 1007.9
20260505011726 64 154 12.0 15.0 0.00 0.00 0.00 24 1007.7
20260505011220 64 170 8.0 14.0 0.00 0.00 0.00 24 1007.7
20260505010718 64 167 7.0 14.0 0.00 0.00 0.00 24 1007.7
20260505010232 65 166 9.0 21.0 0.00 0.00 0.00 23 1007.8
20260505005726 65 156 12.0 21.0 0.00 0.00 0.00 23 1007.8
20260505005221 65 184 9.0 22.0 0.00 0.00 0.00 23 1007.8
20260505004714 65 164 9.0 22.0 0.00 0.00 0.00 24 1007.8
20260505003722 66 187 9.0 19.0 0.00 0.00 0.00 23 1007.9
20260505003216 66 202 12.0 16.0 0.00 0.00 0.00 21 1007.9
20260505002714 66 177 7.0 16.0 0.00 0.00 0.00 22 1007.8
20260505002227 66 163 9.0 17.0 0.00 0.00 0.00 21 1007.9
20260505001720 67 220 12.0 17.0 0.00 0.00 0.00 22 1007.8
20260505001215 67 254 9.0 15.0 0.00 0.00 0.00 24 1007.7
20260505000729 67 254 10.0 15.0 0.00 0.00 0.00 24 1007.6
20260505000226 67 251 11.0 15.0 0.00 0.00 0.00 24 1007.6
20260504235718 66 252 10.0 13.0 0.00 0.00 0.00 25 1007.6
20260504235232 66 251 9.0 15.0 0.00 0.00 0.00 25 1007.6
20260504234726 66 252 9.0 18.0 0.00 0.00 0.00 24 1007.7
20260504234224 66 252 12.0 21.0 0.00 0.00 0.00 25 1007.6
20260504233718 66 257 14.0 21.0 0.00 0.00 0.00 25 1007.6
20260504233232 66 250 11.0 19.0 0.00 0.00 0.00 28 1007.6
20260504232726 65 220 13.0 20.0 0.00 0.00 0.00 26 1007.7
20260504232220 65 229 13.0 20.0 0.00 0.00 0.00 25 1007.7
20260504231714 65 223 15.0 22.0 0.00 0.00 0.00 26 1007.8
20260504231228 66 229 15.0 25.0 0.00 0.00 0.00 27 1007.8
20260504230726 66 223 16.0 25.0 0.00 0.00 0.00 25 1007.9
20260504230241 67 244 19.0 29.0 0.00 0.00 0.00 26 1007.9
20260504225734 68 214 18.0 30.0 0.00 0.00 0.00 25 1007.9
20260504225227 68 213 22.0 30.0 0.00 0.00 0.00 23 1007.7
20260504224742 70 253 9.0 21.0 0.00 0.00 0.00 15 1007.7
20260504224215 71 206 9.0 12.0 0.00 0.00 0.00 13 1007.5